Regional Weather Roundup
Issued by NWS Little Rock, AR

Home | Current Version | Previous Version | Text Only | Print | Product List | Glossary On
Versions: 1 2 3 4 5 6 7 8 9 10 11 12 13 14 15 16 17 18 19 20 21 22 23 24 25 26 27
000
ASUS44 KLZK 230905
RWRLZK

WEATHER ROUNDUP FOR ARKANSAS
NATIONAL WEATHER SERVICE LITTLE ROCK AR
400 AM CDT SAT JUL 23 2016

NOTE: "FAIR" INDICATES FEW OR NO CLOUDS BELOW 12,000 FEET WITH NO
SIGNIFICANT WEATHER AND/OR OBSTRUCTIONS TO VISIBILITY.

ARZ001-003-010-029-231000-
NORTHWEST ARKANSAS

CITY           SKY/WX    TMP DP  RH WIND       PRES   REMARKS
FAYETTEVILLE   CLEAR     73  73 100 CALM      30.01F
FORT SMITH     CLEAR     81  75  82 NE6       29.95S HX  87
HARRISON       CLEAR     75  74  96 CALM      30.03R
BENTONVILLE    CLEAR     75  70  83 CALM      30.02S
ROGERS         CLEAR     77  73  87 SE3       30.03S
SILOAM SPGS    CLEAR     75  64  69 E3        30.02S
HIGHFILL       CLEAR     76  74  93 CALM      30.01S
$$

ARZ004-005-016-231000-
NORTH CENTRAL ARKANSAS

CITY           SKY/WX    TMP DP  RH WIND       PRES   REMARKS
BATESVILLE     PTCLDY    73  72  94 CALM      29.98R
FLIPPIN        PTCLDY    77  73  88 CALM      29.97S
MTN HOME       CLEAR     77  73  87 CALM      29.99S
$$

ARZ040-041-231000-
WEST CENTRAL ARKANSAS

CITY           SKY/WX    TMP DP  RH WIND       PRES   REMARKS
MENA           CLEAR     77  77 100 CALM      30.01R
MOUNT IDA      CLEAR     77  76  96 CALM      29.97R
$$

ARZ009-017-025-026-028-231000-
NORTHEAST ARKANSAS

CITY           SKY/WX    TMP DP  RH WIND       PRES   REMARKS
CORNING          N/A     77  77 100 CALM      29.98R
JONESBORO      CLEAR     78  75  90 E3        29.96R
NEWPORT        PTCLDY    78  78 100 NW3       29.97S
WALNUT RIDGE   PTCLDY    77  73  88 CALM      29.96R
BLYTHEVILLE    CLOUDY    76  73  91 CALM      29.98R
$$

ARZ022-023-033-042-044-231000-
CENTRAL ARKANSAS

CITY           SKY/WX    TMP DP  RH WIND       PRES   REMARKS
LITTLE ROCK    PTCLDY    82  77  84 CALM      29.96R HX  90
N LITTLE ROCK    N/A     79  75  89 CALM      29.93S
JACKSONVILLE   CLEAR     78  77  99 N1        29.96R
SEARCY         PTCLDY    78  77  96 NW3       29.97S
HOT SPRINGS    CLEAR     80  74  81 CALM      29.97F HX  85
RUSSELLVILLE   CLEAR     79  77  94 CALM      29.95S
$$

ARZ036-231000-
EAST ARKANSAS

CITY           SKY/WX    TMP DP  RH WIND       PRES   REMARKS
WEST MEMPHIS   CLOUDY    79  74  84 E10       29.97R
$$

ARZ050-053-066-070-073-231000-
SOUTHWEST ARKANSAS

CITY           SKY/WX    TMP DP  RH WIND       PRES   REMARKS
CAMDEN         CLEAR     77  73  88 SE3       29.95F FOG
TEXARKANA      CLEAR     81  75  82 S5        29.96S HX  87
EL DORADO      CLEAR     76  76 100 S3        29.97S
DE QUEEN       CLEAR     77  76  96 CALM      29.94S FOG
$$

ARZ056-057-069-231000-
SOUTHEAST ARKANSAS

CITY           SKY/WX    TMP DP  RH WIND       PRES   REMARKS
PINE BLUFF     CLEAR     77  76  96 S6        29.96S
STUTTGART      CLEAR     81  73  78 CALM      29.96S HX  85
MONTICELLO     CLEAR     78  75  90 W5        29.96S

$$






USA.gov is the U.S. government's official web portal to all federal, state and local government web resources and services.